User: anonymous   Login
Location: Caltech
(34.1382°N, 118.1253°W)
Time: 04:07:26
(UTC-08:00)
Language:

Cosmos 2360 Rocket - Orbit

View from above orbital plane
View from above orbital plane
View from above satellite
View from above satellite

Ground track
Ground track

The orbit data is extracted from the following two-line orbital elements,

1 25407U 98045B   15026.72159726 -.00000057  00000-0 -47488-5 0  6680
2 25407 071.0113 074.7971 0005435 096.8323 039.5669 14.15691883852702
Epoch (UTC): 26 January 2015 17:19:06
Eccentricity: 0.0005435
inclination: 71.0113°
perigee height: 836 km
apogee height: 844 km
right ascension of ascending node: 74.7971°
argument of perigee: 96.8323°
revolutions per day: 14.15691883
mean anomaly at epoch: 39.5669°
orbit number at epoch: 85270

The dashed part of the orbit path shows where the satellite is in the earth's shadow,  

DLR